Time,TemperatureF,DewpointF,PressureIn,WindDirection,WindDirectionDegrees,WindSpeedMPH,WindSpeedGustMPH,Humidity,HourlyPrecipIn,Conditions,Clouds,dailyrainin,SoftwareType,DateUTC
2013-10-08 00:00:00,48.2,47.0,30.03,SW,219,1.0,-999.0,94,-99.99,,,0.64,weatherlink.com 1.10,2013-10-08 04:00:00,
2013-10-08 00:15:00,48.1,47.0,30.04,South,188,0.0,-999.0,94,-99.99,,,0.00,weatherlink.com 1.10,2013-10-08 04:15:00,
2013-10-08 00:30:00,48.0,46.0,30.04,West,272,0.0,-999.0,94,-99.99,,,0.00,weatherlink.com 1.10,2013-10-08 04:30:00,
2013-10-08 00:45:00,48.0,46.0,30.05,WSW,252,0.0,-999.0,94,-99.99,,,0.00,weatherlink.com 1.10,2013-10-08 04:45:00,
2013-10-08 01:00:00,47.9,46.0,30.05,SSW,209,0.0,-999.0,94,-99.99,,,0.00,weatherlink.com 1.10,2013-10-08 05:00:00,
2013-10-08 01:15:00,47.7,46.0,30.06,SW,223,0.0,-999.0,94,-99.99,,,0.00,weatherlink.com 1.10,2013-10-08 05:15:00,
2013-10-08 01:30:00,47.7,46.0,30.07,West,270,0.0,-999.0,94,-99.99,,,0.00,weatherlink.com 1.10,2013-10-08 05:30:00,
2013-10-08 01:45:00,47.6,46.0,30.08,WSW,252,0.0,-999.0,94,-99.99,,,0.00,weatherlink.com 1.10,2013-10-08 05:45:00,
2013-10-08 02:00:00,47.5,46.0,30.09,West,259,0.0,-999.0,94,-99.99,,,0.00,weatherlink.com 1.10,2013-10-08 06:00:00,
2013-10-08 02:15:00,47.5,46.0,30.09,WNW,289,0.0,-999.0,94,-99.99,,,0.00,weatherlink.com 1.10,2013-10-08 06:15:00,
2013-10-08 02:30:00,47.7,46.0,30.09,SSW,199,0.0,-999.0,95,-99.99,,,0.00,weatherlink.com 1.10,2013-10-08 06:30:00,
2013-10-08 02:45:00,47.9,47.0,30.09,West,259,0.0,-999.0,95,-99.99,,,0.00,weatherlink.com 1.10,2013-10-08 06:45:00,
2013-10-08 03:00:00,48.0,47.0,30.10,West,269,0.0,-999.0,95,-99.99,,,0.00,weatherlink.com 1.10,2013-10-08 07:00:00,
2013-10-08 03:15:00,48.3,47.0,30.10,West,281,0.0,-999.0,95,-99.99,,,0.00,weatherlink.com 1.10,2013-10-08 07:15:00,
2013-10-08 03:30:00,48.4,47.0,30.10,West,281,0.0,-999.0,95,-99.99,,,0.00,weatherlink.com 1.10,2013-10-08 07:30:00,
2013-10-08 03:45:00,48.3,47.0,30.11,WSW,250,0.0,-999.0,94,-99.99,,,0.00,weatherlink.com 1.10,2013-10-08 07:45:00,
2013-10-08 04:00:00,47.9,46.0,30.11,WSW,250,0.0,-999.0,94,-99.99,,,0.00,weatherlink.com 1.10,2013-10-08 08:00:00,
2013-10-08 04:15:00,47.5,46.0,30.12,WSW,250,0.0,-999.0,94,-99.99,,,0.00,weatherlink.com 1.10,2013-10-08 08:15:00,
2013-10-08 04:30:00,47.1,46.0,30.13,WSW,250,0.0,-999.0,94,-99.99,,,0.00,weatherlink.com 1.10,2013-10-08 08:30:00,
2013-10-08 04:45:00,46.8,45.0,30.14,WSW,250,0.0,-999.0,94,-99.99,,,0.00,weatherlink.com 1.10,2013-10-08 08:45:00,
2013-10-08 05:00:00,46.5,45.0,30.14,WSW,250,0.0,-999.0,94,-99.99,,,0.00,weatherlink.com 1.10,2013-10-08 09:00:00,
2013-10-08 05:15:00,46.2,45.0,30.15,WSW,250,0.0,-999.0,94,-99.99,,,0.00,weatherlink.com 1.10,2013-10-08 09:15:00,
2013-10-08 05:30:00,46.1,45.0,30.16,WSW,250,0.0,-999.0,94,-99.99,,,0.00,weatherlink.com 1.10,2013-10-08 09:30:00,
2013-10-08 05:45:00,45.8,44.0,30.17,WSW,250,0.0,-999.0,94,-99.99,,,0.00,weatherlink.com 1.10,2013-10-08 09:45:00,
2013-10-08 06:00:00,45.6,44.0,30.18,WSW,241,0.0,-999.0,95,-99.99,,,0.00,weatherlink.com 1.10,2013-10-08 10:00:00,
2013-10-08 06:15:00,45.5,44.0,30.18,WSW,241,0.0,-999.0,95,-99.99,,,0.00,weatherlink.com 1.10,2013-10-08 10:15:00,
2013-10-08 06:30:00,45.2,44.0,30.18,WSW,241,0.0,-999.0,95,-99.99,,,0.00,weatherlink.com 1.10,2013-10-08 10:30:00,
2013-10-08 06:45:00,45.0,44.0,30.19,WSW,243,0.0,-999.0,95,-99.99,,,0.00,weatherlink.com 1.10,2013-10-08 10:45:00,
2013-10-08 07:00:00,44.9,44.0,30.20,WSW,242,0.0,-999.0,95,-99.99,,,0.00,weatherlink.com 1.10,2013-10-08 11:00:00,
2013-10-08 07:15:00,44.8,44.0,30.21,WSW,242,0.0,-999.0,95,-99.99,,,0.00,weatherlink.com 1.10,2013-10-08 11:15:00,
2013-10-08 07:30:00,44.7,43.0,30.21,WSW,242,0.0,-999.0,95,-99.99,,,0.00,weatherlink.com 1.10,2013-10-08 11:30:00,
2013-10-08 07:45:00,44.6,43.0,30.23,WSW,242,0.0,-999.0,95,-99.99,,,0.00,weatherlink.com 1.10,2013-10-08 11:45:00,
2013-10-08 08:00:00,44.6,43.0,30.23,WSW,242,0.0,-999.0,95,-99.99,,,0.00,weatherlink.com 1.10,2013-10-08 12:00:00,
2013-10-08 08:15:00,44.9,44.0,30.24,WSW,244,0.0,-999.0,96,-99.99,,,0.00,weatherlink.com 1.10,2013-10-08 12:15:00,
2013-10-08 08:30:00,45.5,45.0,30.25,SSW,207,1.0,-999.0,96,-99.99,,,0.00,weatherlink.com 1.10,2013-10-08 12:30:00,
2013-10-08 08:45:00,46.4,45.0,30.26,WSW,254,0.0,-999.0,96,-99.99,,,0.00,weatherlink.com 1.10,2013-10-08 12:45:00,
2013-10-08 09:00:00,47.4,46.0,30.26,West,277,0.0,-999.0,96,-99.99,,,0.00,weatherlink.com 1.10,2013-10-08 13:00:00,
2013-10-08 09:15:00,48.4,48.0,30.27,WSW,238,0.0,-999.0,97,-99.99,,,0.00,weatherlink.com 1.10,2013-10-08 13:15:00,
2013-10-08 09:30:00,49.7,49.0,30.27,WNW,292,0.0,-999.0,97,-99.99,,,0.00,weatherlink.com 1.10,2013-10-08 13:30:00,
2013-10-08 09:45:00,50.5,49.0,30.28,West,272,0.0,-999.0,96,-99.99,,,0.00,weatherlink.com 1.10,2013-10-08 13:45:00,
2013-10-08 10:00:00,51.8,51.0,30.28,East,80,0.0,-999.0,95,-99.99,,,0.00,weatherlink.com 1.10,2013-10-08 14:00:00,
2013-10-08 10:15:00,52.8,50.0,30.29,SW,223,3.0,-999.0,90,-99.99,,,0.00,weatherlink.com 1.10,2013-10-08 14:15:00,
2013-10-08 10:30:00,54.0,50.0,30.30,NNW,342,0.0,-999.0,85,-99.99,,,0.00,weatherlink.com 1.10,2013-10-08 14:30:00,
2013-10-08 10:45:00,54.6,48.0,30.30,NNW,333,4.0,-999.0,79,-99.99,,,0.00,weatherlink.com 1.10,2013-10-08 14:45:00,
2013-10-08 11:00:00,54.8,48.0,30.30,NNE,16,2.0,-999.0,79,-99.99,,,0.00,weatherlink.com 1.10,2013-10-08 15:00:00,
2013-10-08 11:15:00,55.0,47.0,30.30,NNE,25,0.0,-999.0,74,-99.99,,,0.00,weatherlink.com 1.10,2013-10-08 15:15:00,
2013-10-08 11:30:00,55.6,47.0,30.31,NNE,23,0.0,-999.0,74,-99.99,,,0.00,weatherlink.com 1.10,2013-10-08 15:30:00,
2013-10-08 11:45:00,56.6,48.0,30.31,SSW,205,0.0,-999.0,72,-99.99,,,0.00,weatherlink.com 1.10,2013-10-08 15:45:00,
2013-10-08 12:00:00,57.4,47.0,30.31,NNW,347,3.0,-999.0,69,-99.99,,,0.00,weatherlink.com 1.10,2013-10-08 16:00:00,
2013-10-08 12:15:00,57.5,47.0,30.31,North,360,2.0,-999.0,68,-99.99,,,0.00,weatherlink.com 1.10,2013-10-08 16:15:00,
2013-10-08 12:30:00,57.4,46.0,30.31,NNE,22,1.0,-999.0,67,-99.99,,,0.00,weatherlink.com 1.10,2013-10-08 16:30:00,
2013-10-08 12:45:00,58.5,47.0,30.31,SSW,202,0.0,-999.0,66,-99.99,,,0.00,weatherlink.com 1.10,2013-10-08 16:45:00,
2013-10-08 13:00:00,59.5,48.0,30.31,WSW,257,0.0,-999.0,65,-99.99,,,0.00,weatherlink.com 1.10,2013-10-08 17:00:00,
2013-10-08 13:15:00,60.2,48.0,30.31,NNW,331,2.0,-999.0,64,-99.99,,,0.00,weatherlink.com 1.10,2013-10-08 17:15:00,
2013-10-08 13:30:00,60.1,47.0,30.30,West,260,1.0,-999.0,63,-99.99,,,0.00,weatherlink.com 1.10,2013-10-08 17:30:00,
2013-10-08 13:45:00,61.9,47.0,30.30,WSW,248,3.0,-999.0,59,-99.99,,,0.00,weatherlink.com 1.10,2013-10-08 17:45:00,
2013-10-08 14:00:00,63.5,48.0,30.30,WSW,252,0.0,-999.0,58,-99.99,,,0.00,weatherlink.com 1.10,2013-10-08 18:00:00,
2013-10-08 14:15:00,63.6,48.0,30.30,North,351,1.0,-999.0,57,-99.99,,,0.00,weatherlink.com 1.10,2013-10-08 18:15:00,
2013-10-08 14:30:00,64.5,48.0,30.30,WNW,293,0.0,-999.0,55,-99.99,,,0.00,weatherlink.com 1.10,2013-10-08 18:30:00,
2013-10-08 14:45:00,64.6,48.0,30.30,WSW,255,0.0,-999.0,55,-99.99,,,0.00,weatherlink.com 1.10,2013-10-08 18:45:00,
2013-10-08 15:00:00,64.5,48.0,30.30,WSW,256,0.0,-999.0,55,-99.99,,,0.00,weatherlink.com 1.10,2013-10-08 19:00:00,
2013-10-08 15:15:00,63.9,46.0,30.30,NE,40,0.0,-999.0,52,-99.99,,,0.00,weatherlink.com 1.10,2013-10-08 19:15:00,
2013-10-08 15:30:00,64.0,46.0,30.30,SW,221,0.0,-999.0,53,-99.99,,,0.00,weatherlink.com 1.10,2013-10-08 19:30:00,
2013-10-08 15:45:00,63.7,46.0,30.30,SW,225,0.0,-999.0,53,-99.99,,,0.00,weatherlink.com 1.10,2013-10-08 19:45:00,
2013-10-08 16:00:00,63.3,46.0,30.30,NW,320,1.0,-999.0,54,-99.99,,,0.00,weatherlink.com 1.10,2013-10-08 20:00:00,
2013-10-08 16:15:00,63.0,46.0,30.30,ENE,58,0.0,-999.0,55,-99.99,,,0.00,weatherlink.com 1.10,2013-10-08 20:15:00,
2013-10-08 16:30:00,62.6,46.0,30.30,ENE,58,0.0,-999.0,55,-99.99,,,0.00,weatherlink.com 1.10,2013-10-08 20:30:00,
2013-10-08 16:45:00,62.1,46.0,30.30,NNE,13,0.0,-999.0,57,-99.99,,,0.00,weatherlink.com 1.10,2013-10-08 20:45:00,
2013-10-08 17:00:00,61.3,46.0,30.30,North,5,0.0,-999.0,57,-99.99,,,0.00,weatherlink.com 1.10,2013-10-08 21:00:00,
2013-10-08 17:15:00,60.7,46.0,30.29,NNE,30,0.0,-999.0,58,-99.99,,,0.00,weatherlink.com 1.10,2013-10-08 21:15:00,
2013-10-08 17:30:00,60.3,45.0,30.29,NNE,14,3.0,-999.0,58,-99.99,,,0.00,weatherlink.com 1.10,2013-10-08 21:30:00,
2013-10-08 17:45:00,59.8,45.0,30.29,NNE,12,0.0,-999.0,58,-99.99,,,0.00,weatherlink.com 1.10,2013-10-08 21:45:00,
2013-10-08 18:00:00,59.2,45.0,30.30,NW,309,0.0,-999.0,59,-99.99,,,0.00,weatherlink.com 1.10,2013-10-08 22:00:00,
2013-10-08 18:15:00,59.0,45.0,30.30,NW,315,0.0,-999.0,61,-99.99,,,0.00,weatherlink.com 1.10,2013-10-08 22:15:00,
2013-10-08 18:30:00,58.2,46.0,30.31,North,9,0.0,-999.0,65,-99.99,,,0.00,weatherlink.com 1.10,2013-10-08 22:30:00,
2013-10-08 18:45:00,57.2,47.0,30.30,North,9,0.0,-999.0,68,-99.99,,,0.00,weatherlink.com 1.10,2013-10-08 22:45:00,
2013-10-08 19:00:00,55.9,46.0,30.31,North,5,0.0,-999.0,70,-99.99,,,0.00,weatherlink.com 1.10,2013-10-08 23:00:00,
2013-10-08 19:15:00,54.8,46.0,30.31,North,5,0.0,-999.0,72,-99.99,,,0.00,weatherlink.com 1.10,2013-10-08 23:15:00,
2013-10-08 19:30:00,54.0,46.0,30.32,North,11,0.0,-999.0,74,-99.99,,,0.00,weatherlink.com 1.10,2013-10-08 23:30:00,
2013-10-08 19:45:00,53.2,45.0,30.32,North,11,0.0,-999.0,75,-99.99,,,0.00,weatherlink.com 1.10,2013-10-08 23:45:00,
2013-10-08 20:00:00,52.1,46.0,30.32,North,11,0.0,-999.0,79,-99.99,,,0.00,weatherlink.com 1.10,2013-10-09 00:00:00,
2013-10-08 20:15:00,51.0,45.0,30.32,North,11,0.0,-999.0,81,-99.99,,,0.00,weatherlink.com 1.10,2013-10-09 00:15:00,
2013-10-08 20:30:00,49.9,45.0,30.33,North,11,0.0,-999.0,83,-99.99,,,0.00,weatherlink.com 1.10,2013-10-09 00:30:00,
2013-10-08 20:45:00,49.0,45.0,30.33,North,11,0.0,-999.0,85,-99.99,,,0.00,weatherlink.com 1.10,2013-10-09 00:45:00,
2013-10-08 21:00:00,48.5,45.0,30.34,North,11,0.0,-999.0,86,-99.99,,,0.00,weatherlink.com 1.10,2013-10-09 01:00:00,
2013-10-08 21:15:00,47.9,44.0,30.34,North,11,0.0,-999.0,87,-99.99,,,0.00,weatherlink.com 1.10,2013-10-09 01:15:00,
2013-10-08 21:30:00,47.6,44.0,30.34,North,11,0.0,-999.0,87,-99.99,,,0.00,weatherlink.com 1.10,2013-10-09 01:30:00,
2013-10-08 21:45:00,47.0,44.0,30.34,North,11,0.0,-999.0,89,-99.99,,,0.00,weatherlink.com 1.10,2013-10-09 01:45:00,
2013-10-08 22:00:00,46.6,44.0,30.34,North,11,0.0,-999.0,89,-99.99,,,0.00,weatherlink.com 1.10,2013-10-09 02:00:00,
2013-10-08 22:15:00,46.2,44.0,30.34,North,11,0.0,-999.0,90,-99.99,,,0.00,weatherlink.com 1.10,2013-10-09 02:15:00,
2013-10-08 22:30:00,46.0,43.0,30.34,North,11,0.0,-999.0,90,-99.99,,,0.00,weatherlink.com 1.10,2013-10-09 02:30:00,
2013-10-08 22:45:00,45.6,43.0,30.34,North,11,0.0,-999.0,90,-99.99,,,0.00,weatherlink.com 1.10,2013-10-09 02:45:00,
2013-10-08 23:00:00,45.4,43.0,30.34,North,11,0.0,-999.0,90,-99.99,,,0.00,weatherlink.com 1.10,2013-10-09 03:00:00,
2013-10-08 23:15:00,45.2,43.0,30.34,North,11,0.0,-999.0,91,-99.99,,,0.00,weatherlink.com 1.10,2013-10-09 03:15:00,
2013-10-08 23:30:00,45.0,43.0,30.34,North,11,0.0,-999.0,91,-99.99,,,0.00,weatherlink.com 1.10,2013-10-09 03:30:00,
2013-10-08 23:45:00,44.9,43.0,30.34,North,11,0.0,-999.0,92,-99.99,,,0.00,weatherlink.com 1.10,2013-10-09 03:45:00,